Temperature
17 17 16 16 16 15 15 15 14 14 14 14 13 13 13 13 13 13 13 13 13 13 12 12 12 12 13 13 13 13 13 13 14 14 14 14 14 14 14 14 14 15 15
17 17 17 16 16 15 15 15 14 14 14 14 14 13 13 13 13 13 13 13 13 13 13 12 12 13 13 13 13 13 13 13 13 13 14 14 13 13 14 14 14 14 14
17 17 17 16 16 15 15 15 15 14 14 14 14 13 13 13 13 13 13 13 13 13 13 13 13 13 13 13 13 13 13 13 13 13 13 13 13 13 13 14 14 14 14
17 17 17 16 16 16 15 15 15 14 14 14 14 14 13 13 13 13 13 13 13 13 13 13 13 13 13 13 13 13 13 13 13 13 13 13 13 13 13 13 14 14 14
17 17 16 16 16 16 15 15 15 15 14 14 14 14 14 14 13 13 13 13 13 13 13 13 13 13 13 13 13 13 13 13 13 13 13 13 13 13 13 13 13 13 13
17 16 16 16 16 16 15 15 15 15 15 14 14 14 14 14 14 14 13 13 13 13 13 13 13 13 13 13 13 13 13 13 13 13 13 13 13 13 13 13 13 13 13
16 16 16 16 16 16 15 15 15 15 15 15 14 14 14 14 14 14 14 13 13 13 13 13 13 13 13 13 13 13 13 13 13 13 13 13 13 13 13 13 13 13 13
16 16 16 16 16 15 15 15 15 15 14 15 14 14 14 14 14 14 14 13 13 13 13 13 13 13 13 13 13 12 13 13 13 13 13 13 12 13 13 13 13 13 13
16 15 15 15 15 15 15 15 15 14 14 14 14 14 14 14 14 14 14 13 13 13 13 13 13 13 13 13 13 12 12 13 13 13 13 13 13 13 13 13 12 12 12
15 15 15 15 15 15 15 14 14 14 14 14 14 14 14 14 14 14 14 13 13 13 13 13 13 13 13 13 13 13 12 12 12 13 13 13 13 13 13 12 12 12 12
15 14 14 14 14 14 14 14 14 14 13 13 13 13 13 14 14 14 14 13 13 13 13 13 13 13 13 13 13 13 12 12 12 12 12 12 12 12 12 12 12 12 12
14 14 14 14 14 14 14 14 13 13 13 13 13 13 13 13 13 14 14 13 13 13 13 13 13 13 13 13 13 13 12 12 12 12 12 12 12 12 12 12 12 12 12
14 14 14 14 13 13 13 13 13 13 13 13 13 13 13 13 13 13 13 13 13 13 13 13 13 13 13 13 13 12 12 12 12 11 12 12 11 11 11 11 11 11 11
13 13 13 13 13 13 13 13 12 12 12 12 12 12 12 12 12 12 13 13 13 13 12 12 12 12 12 12 12 12 12 11 11 11 11 11 11 11 11 11 11 11 11
12 12 12 12 12 12 12 12 12 12 12 12 12 12 12 12 12 12 12 12 12 12 12 12 12 12 11 11 11 11 11 11 11 11 11 11 11 11 10 10 10 10 10
12 12 11 11 11 11 11 12 12 12 12 12 12 12 12 12 12 12 12 11 11 11 11 11 11 11 11 11 11 11 11 11 11 11 10 10 10 10 10 10 10 10 10
11 11 11 11 11 11 11 11 11 11 11 12 12 12 11 12 12 12 11 11 11 11 11 11 11 11 11 11 11 11 11 11 11 10 10 10 10 10 9 9 9 9 9
10 10 10 10 10 10 10 10 10 10 10 11 11 11 11 11 11 11 11 11 10 10 10 10 10 11 11 11 11 10 10 10 10 10 10 10 10 9 9 9 9 9 8
10 9 9 9 9 9 9 10 10 10 10 10 10 11 11 11 10 10 10 10 10 10 10 10 10 10 10 11 10 10 10 10 10 10 10 9 9 9 9 9 8 8 8
9 9 9 9 9 9 9 9 9 9 9 9 9 10 10 10 10 10 10 10 9 10 10 10 10 10 10 10 10 10 10 10 10 9 9 9 9 9 8 8 8 8 8
8 8 8 8 8 8 8 8 8 8 8 8 9 9 9 9 9 9 9 9 9 9 9 10 9 10 10 10 10 10 10 10 9 9 9 9 9 8 8 8 7 7 7
8 8 8 8 8 8 8 8 8 8 8 8 8 8 8 8 8 8 8 9 9 9 9 9 9 9 9 9 9 9 9 9 9 9 9 8 8 8 8 7 7 7 6
7 7 7 7 7 7 7 7 7 7 7 7 7 7 7 7 8 8 8 8 8 8 8 8 8 9 9 9 9 9 9 9 9 9 9 8 8 8 7 7 7 6 6
6 6 6 6 6 6 7 7 7 7 6 7 7 7 7 7 7 7 7 7 7 8 8 8 8 8 8 8 8 8 8 8 8 8 8 8 8 7 7 7 6 6 5
6 6 6 6 6 6 6 6 6 6 6 6 6 6 6 6 6 6 7 7 7 7 7 7 7 7 8 8 8 8 8 8 8 8 7 7 7 7 7 6 6 5 5
5 5 5 5 5 5 5 5 5 5 5 5 5 5 6 6 6 6 6 6 6 6 6 7 7 7 7 7 7 7 7 7 7 7 7 7 7 6 6 6 5 5 4
Wind_Speed
6 6 6 6 5 5 5 5 5 5 4 4 4 4 3 3 3 3 4 3 3 3 3 3 3 3 3 3 3 3 3 3 3 2 1 1 1 2 1 1 2 3 5
5 6 6 6 6 6 6 6 6 5 5 5 5 4 4 3 4 4 4 3 3 3 2 3 3 3 3 3 3 3 3 4 4 3 2 1 2 2 2 2 2 2 2
5 5 6 6 6 6 6 6 6 6 6 5 5 5 5 5 4 4 4 4 4 4 3 3 3 3 4 3 4 4 4 4 4 4 2 1 2 2 2 3 3 2 2
4 5 6 6 6 7 7 6 7 7 6 6 6 6 6 6 5 5 5 5 5 4 4 4 4 4 4 4 4 4 4 4 4 4 4 3 2 2 3 3 2 2 3
3 4 5 5 5 6 6 7 7 7 7 7 7 7 6 6 5 6 6 6 5 5 5 5 5 4 4 4 4 4 4 4 4 4 4 4 3 3 3 3 3 2 2
2 3 3 4 5 5 6 6 7 7 7 7 7 7 7 6 4 6 7 7 6 6 6 6 5 6 7 7 6 6 6 6 5 5 5 5 5 4 3 4 3 3 2
2 2 3 3 4 5 6 6 7 7 7 8 8 8 9 7 5 7 9 8 8 7 7 6 5 5 7 7 9 10 9 9 8 7 6 6 5 5 5 5 5 4 3
2 3 3 4 4 5 5 6 7 7 7 8 8 9 8 7 6 8 9 10 9 8 7 7 7 6 6 7 7 8 8 8 8 8 7 6 5 4 5 5 4 3 2
3 4 4 4 4 5 5 6 7 7 8 8 8 9 9 9 7 8 9 8 8 9 8 7 8 7 4 5 8 8 7 6 4 4 3 2 1 1 3 4 4 4 3
4 5 5 5 5 5 6 6 6 7 8 8 8 9 10 10 7 8 10 8 9 8 7 7 6 7 5 7 8 8 8 6 6 6 6 7 6 6 7 7 6 5 3
6 6 6 6 6 6 6 6 6 7 7 8 9 9 10 10 8 9 10 9 9 9 8 7 6 7 7 8 9 8 6 6 6 6 5 5 5 5 6 5 5 4 4
6 6 6 7 6 6 7 7 7 7 8 9 9 10 9 9 9 9 11 13 10 10 9 8 6 7 8 9 9 6 4 5 6 6 5 5 5 5 4 4 4 3 2
7 7 7 8 7 7 7 8 8 7 8 8 8 9 9 8 8 9 11 13 13 11 9 6 5 7 9 8 8 8 8 7 7 7 6 6 5 5 4 4 4 3 3
7 7 7 8 8 8 7 7 8 8 8 9 9 9 9 9 8 7 8 9 11 11 10 8 7 7 8 7 8 9 8 7 7 7 7 5 5 5 5 5 5 5 4
9 8 8 8 8 8 8 8 9 10 9 10 10 10 11 11 9 8 8 9 9 9 9 9 9 9 9 9 9 8 8 8 8 8 7 7 6 6 6 5 5 5 5
9 9 8 8 8 8 9 9 10 12 12 13 14 14 13 12 10 10 12 12 10 9 9 10 11 10 11 10 10 9 9 9 9 8 8 8 8 7 7 6 6 6 6
10 10 9 9 9 9 9 10 11 10 12 14 16 16 16 14 13 12 12 12 12 11 11 12 12 11 11 11 10 10 9 9 8 9 9 9 8 8 7 7 7 6 6
11 10 10 9 9 10 10 11 11 11 11 11 11 14 15 15 15 14 12 10 10 11 12 12 12 11 11 11 10 10 9 9 9 9 9 9 8 8 8 8 7 7 6
11 10 10 10 10 11 11 11 11 12 12 12 11 10 11 11 12 12 11 11 11 12 12 12 12 11 11 11 10 10 10 9 10 9 8 9 9 9 8 8 7 8 7
10 11 11 11 12 11 11 11 12 12 12 12 11 11 8 8 9 9 9 11 12 12 12 12 11 11 11 11 10 10 10 10 10 10 9 9 9 9 9 9 9 8 8
11 11 12 12 12 12 12 12 12 12 12 12 12 11 9 10 11 12 11 11 12 12 12 11 10 10 11 10 10 12 13 11 10 10 9 9 9 9 8 8 9 8 7
11 12 12 12 12 12 13 13 13 13 13 14 12 11 10 11 11 11 11 11 11 11 10 10 10 9 10 10 11 12 12 12 11 11 10 9 9 10 9 9 9 8 8
12 13 13 13 13 13 13 13 13 13 13 13 13 11 10 11 11 11 11 10 10 9 9 9 9 9 9 10 10 11 12 12 12 12 11 11 10 9 10 10 11 10 10
13 14 15 14 14 13 13 13 13 14 14 13 13 12 11 11 11 12 11 10 9 9 8 8 9 11 12 10 9 10 10 10 11 12 14 13 12 10 10 10 10 11 10
14 14 14 14 14 14 14 14 14 14 14 13 12 12 11 11 11 11 10 10 10 9 9 9 8 10 13 13 12 11 11 12 11 11 12 12 13 12 11 11 10 10 10
14 14 14 13 13 13 13 14 14 14 14 13 12 12 11 11 11 10 10 9 9 8 8 8 9 11 12 12 13 13 14 15 14 13 11 10 12 11 12 10 12 11 11
Wind_Direction
215 218 219 224 230 237 245 254 261 271 273 282 288 292 293 285 277 274 282 283 277 266 252 249 244 246 238 230 237 250 257 258 245 237 220 235 216 216 196 221 214 198 178
219 221 226 228 229 236 243 248 254 264 268 275 279 280 283 281 279 278 279 275 270 270 259 246 239 227 233 235 229 236 243 248 246 240 227 235 243 215 210 216 219 204 191
217 224 229 232 236 243 250 251 254 260 265 265 267 271 273 274 273 269 270 270 266 266 260 250 249 237 228 223 226 230 234 236 242 237 231 238 245 222 213 212 205 202 210
219 227 235 242 245 249 252 252 252 257 261 264 263 264 268 268 266 265 262 263 261 255 252 249 248 245 242 234 227 228 230 231 230 226 223 226 229 229 221 215 210 193 207
226 235 246 250 249 252 252 250 250 253 257 260 264 262 262 263 264 268 263 261 262 258 250 245 243 249 281 270 256 240 229 230 226 225 222 224 221 216 220 220 219 201 193
243 257 268 270 261 256 254 253 254 251 253 255 258 259 260 257 253 254 263 263 260 259 257 251 238 228 228 229 245 256 261 248 236 226 227 226 225 221 222 224 217 213 208
269 280 285 280 275 268 260 255 252 250 250 253 254 254 255 251 231 239 242 258 260 261 261 255 246 237 231 233 219 219 232 244 256 254 242 238 235 223 220 221 220 228 231
301 298 298 291 285 281 271 261 257 257 252 250 252 253 254 251 229 235 236 247 254 253 251 251 249 245 236 241 235 230 229 224 226 236 244 247 241 233 230 232 229 224 220
306 299 297 292 290 283 275 270 263 261 258 254 253 252 251 247 224 228 235 246 247 247 246 245 247 243 210 229 238 235 230 223 204 234 294 284 6 234 235 212 203 208 214
308 301 297 291 284 279 277 276 270 260 259 260 256 253 252 254 226 219 232 245 245 244 241 237 232 245 221 216 235 235 231 225 215 203 207 206 211 198 208 220 215 217 219
309 301 294 288 281 278 278 276 274 267 262 260 260 255 253 252 235 218 225 239 245 246 242 237 230 205 220 219 239 243 242 244 228 219 211 203 204 202 202 214 219 225 225
308 299 293 288 282 278 275 274 273 272 265 261 262 261 256 250 245 228 222 232 248 246 245 241 228 193 210 219 228 229 220 228 228 216 211 208 204 200 196 195 198 207 227
309 302 297 293 285 280 276 274 271 268 267 266 264 265 262 255 243 229 226 227 231 241 246 243 229 198 208 216 214 213 211 220 222 218 215 212 207 199 189 181 177 166 151
308 305 301 297 292 287 280 274 271 269 268 269 268 268 267 260 253 242 239 236 227 233 241 227 208 207 221 228 210 211 219 222 223 221 216 206 193 187 188 184 182 178 175
308 307 304 301 296 288 281 275 270 268 267 268 271 268 268 265 258 253 250 245 237 233 231 229 226 221 221 222 220 214 212 212 215 216 210 203 198 197 193 191 193 193 198
310 309 305 300 296 290 288 285 270 263 260 253 257 263 266 267 272 253 248 252 246 228 227 231 228 223 221 220 219 215 212 211 212 211 208 205 202 199 194 189 192 197 198
306 305 303 299 295 292 289 288 289 282 261 252 249 250 253 259 258 249 243 241 232 214 227 233 231 226 222 220 218 216 213 209 206 207 207 204 202 200 195 192 190 193 194
303 301 298 295 293 291 289 287 286 287 288 283 265 250 247 248 247 242 234 231 232 220 229 232 231 228 224 219 215 213 209 204 203 204 205 202 200 198 195 193 191 191 190
302 300 298 296 292 289 288 287 285 284 284 284 285 274 254 251 245 237 223 235 236 230 228 231 231 227 223 218 213 210 206 202 199 197 200 198 196 195 195 193 189 180 190
296 292 292 293 292 289 288 288 287 285 284 283 280 279 277 268 263 252 239 239 240 237 232 230 229 227 221 215 209 205 204 199 196 197 194 195 194 195 194 191 189 188 194
296 294 289 288 288 289 288 287 285 283 282 281 280 278 271 267 263 256 247 243 241 239 235 231 227 223 220 213 207 203 200 199 196 195 192 191 191 190 190 189 189 190 188
294 293 292 290 289 288 289 287 284 282 281 281 282 279 264 264 264 260 252 247 244 241 239 234 228 220 214 210 206 203 200 197 194 193 190 186 188 187 184 184 185 185 185
290 290 290 289 288 286 285 285 284 283 283 281 279 278 272 266 264 261 258 254 247 240 235 230 227 221 215 212 207 203 201 197 192 189 187 184 184 185 183 183 184 183 185
290 289 290 290 288 286 285 285 285 284 282 281 279 275 271 269 266 263 260 256 245 236 232 229 227 220 214 208 203 200 199 193 188 187 185 182 181 181 182 182 182 184 184
290 290 290 290 289 287 286 285 284 282 280 279 277 274 272 269 266 264 260 254 245 235 230 228 226 219 214 207 202 195 179 172 176 178 180 180 179 179 180 180 180 179 181
290 290 290 289 288 287 286 285 285 284 281 280 277 273 271 269 266 262 257 251 243 235 230 225 221 218 214 209 201 184 168 166 166 168 176 178 176 177 176 177 177 179 180
Height
1512 1513 1513 1513 1513 1513 1513 1512 1512 1512 1511 1510 1509 1508 1507 1506 1505 1503 1502 1501 1500 1500 1499 1498 1498 1498 1498 1499 1499 1499 1500 1501 1502 1502 1502 1503 1503 1503 1504 1505 1506 1508 1509
1510 1510 1511 1511 1511 1511 1511 1511 1510 1510 1509 1509 1508 1507 1506 1505 1504 1503 1501 1500 1499 1499 1498 1498 1497 1497 1497 1497 1498 1498 1499 1499 1501 1501 1501 1501 1502 1502 1502 1503 1505 1506 1507
1507 1508 1508 1509 1509 1509 1509 1509 1508 1508 1507 1507 1506 1505 1504 1503 1502 1501 1500 1500 1499 1498 1497 1497 1496 1496 1496 1496 1496 1497 1497 1498 1498 1499 1500 1500 1500 1501 1501 1502 1503 1503 1504
1505 1505 1506 1506 1506 1506 1506 1506 1506 1505 1505 1504 1504 1503 1502 1501 1500 1500 1499 1498 1497 1497 1496 1495 1495 1495 1495 1495 1495 1495 1495 1496 1496 1497 1498 1498 1499 1499 1500 1500 1502 1502 1502
1503 1503 1503 1504 1503 1503 1503 1502 1502 1502 1502 1501 1501 1500 1500 1499 1498 1498 1497 1496 1496 1495 1494 1494 1493 1493 1493 1493 1493 1493 1493 1494 1494 1495 1496 1496 1497 1497 1498 1499 1500 1500 1500
1500 1501 1501 1500 1500 1500 1500 1499 1499 1499 1498 1498 1498 1497 1497 1496 1495 1495 1495 1494 1494 1493 1493 1492 1491 1490 1490 1490 1490 1490 1491 1492 1493 1493 1493 1494 1495 1495 1496 1496 1497 1498 1499
1499 1498 1498 1497 1497 1497 1497 1496 1495 1495 1495 1494 1494 1493 1493 1493 1492 1492 1491 1491 1491 1491 1490 1490 1489 1488 1488 1488 1487 1488 1488 1489 1489 1490 1491 1492 1492 1493 1493 1494 1495 1496 1496
1497 1496 1495 1495 1494 1493 1493 1492 1492 1492 1491 1490 1490 1490 1489 1489 1488 1488 1488 1488 1488 1487 1487 1486 1486 1485 1485 1485 1485 1485 1486 1486 1486 1487 1488 1489 1489 1490 1490 1492 1492 1493 1494
1494 1493 1493 1492 1491 1490 1489 1488 1488 1487 1487 1486 1485 1485 1484 1484 1484 1484 1484 1484 1484 1483 1483 1482 1482 1482 1482 1481 1482 1482 1483 1483 1483 1483 1484 1484 1485 1486 1487 1489 1489 1491 1492
1491 1491 1490 1489 1488 1487 1486 1485 1484 1483 1482 1482 1481 1480 1480 1480 1479 1479 1480 1480 1480 1480 1479 1479 1478 1478 1478 1478 1479 1479 1480 1480 1480 1480 1481 1481 1482 1483 1484 1485 1487 1488 1489
1488 1487 1486 1486 1484 1483 1482 1481 1480 1479 1478 1477 1476 1475 1474 1474 1474 1474 1474 1474 1475 1475 1475 1474 1474 1474 1474 1474 1475 1476 1476 1477 1477 1477 1478 1478 1479 1479 1480 1481 1483 1484 1486
1485 1484 1483 1482 1481 1479 1478 1477 1476 1475 1474 1472 1471 1470 1469 1469 1468 1468 1468 1469 1469 1469 1469 1470 1469 1469 1470 1470 1470 1471 1472 1473 1473 1474 1474 1475 1475 1476 1477 1478 1479 1480 1482
1481 1479 1478 1477 1476 1475 1474 1472 1471 1470 1469 1468 1467 1465 1464 1463 1463 1462 1462 1462 1462 1463 1463 1464 1464 1464 1465 1465 1466 1467 1467 1468 1469 1470 1471 1471 1472 1472 1473 1474 1475 1476 1478
1477 1476 1474 1473 1471 1470 1469 1467 1466 1465 1464 1463 1462 1460 1459 1458 1457 1456 1456 1455 1456 1456 1457 1457 1458 1458 1459 1460 1460 1461 1462 1463 1464 1465 1466 1467 1468 1468 1469 1471 1472 1473 1474
1474 1472 1470 1468 1466 1465 1463 1462 1460 1459 1458 1457 1455 1454 1453 1452 1451 1451 1450 1450 1449 1449 1450 1450 1451 1451 1452 1453 1454 1455 1456 1458 1459 1460 1461 1462 1463 1464 1465 1467 1468 1469 1471
1471 1468 1466 1464 1461 1459 1457 1455 1453 1452 1451 1449 1448 1447 1445 1445 1444 1443 1443 1443 1443 1443 1443 1443 1443 1444 1445 1446 1448 1449 1450 1451 1452 1454 1455 1457 1458 1460 1461 1462 1464 1465 1467
1467 1464 1462 1459 1456 1454 1452 1449 1446 1444 1443 1441 1440 1438 1437 1436 1435 1435 1435 1435 1435 1435 1435 1435 1436 1436 1437 1439 1440 1441 1443 1444 1446 1448 1449 1451 1452 1454 1456 1457 1459 1461 1462
1462 1459 1456 1454 1451 1449 1446 1444 1441 1438 1435 1433 1432 1430 1429 1428 1427 1426 1426 1426 1425 1425 1426 1426 1427 1428 1429 1431 1432 1434 1435 1437 1439 1440 1443 1445 1447 1449 1450 1452 1454 1456 1458
1456 1454 1451 1448 1445 1443 1440 1438 1435 1432 1429 1426 1424 1422 1421 1420 1419 1418 1418 1417 1416 1416 1417 1418 1419 1420 1421 1422 1424 1426 1428 1430 1431 1433 1435 1438 1440 1442 1445 1447 1449 1450 1453
1451 1448 1445 1442 1439 1437 1434 1431 1428 1425 1422 1420 1417 1415 1413 1412 1410 1409 1408 1408 1408 1408 1408 1409 1410 1411 1412 1414 1415 1417 1420 1422 1424 1426 1428 1431 1433 1436 1438 1441 1443 1445 1448
1445 1442 1439 1436 1433 1430 1427 1424 1421 1418 1415 1412 1410 1408 1406 1404 1402 1400 1399 1399 1399 1399 1400 1400 1401 1402 1404 1405 1406 1409 1411 1414 1416 1419 1421 1424 1426 1429 1432 1435 1438 1440 1443
1438 1435 1432 1429 1426 1423 1420 1417 1414 1411 1408 1405 1402 1400 1398 1396 1394 1393 1391 1390 1390 1390 1391 1392 1392 1393 1394 1396 1398 1400 1403 1405 1408 1411 1415 1417 1420 1423 1426 1429 1432 1435 1437
1432 1428 1425 1422 1419 1415 1412 1409 1406 1403 1400 1397 1395 1392 1390 1388 1386 1384 1383 1382 1381 1382 1382 1383 1383 1385 1386 1388 1390 1392 1394 1397 1401 1404 1407 1410 1413 1416 1420 1423 1426 1429 1432
1424 1421 1418 1414 1411 1407 1404 1401 1398 1395 1392 1389 1387 1384 1382 1379 1377 1376 1375 1374 1373 1373 1373 1374 1375 1376 1378 1380 1382 1384 1387 1390 1394 1397 1400 1404 1407 1410 1414 1417 1420 1424 1427
1417 1413 1410 1406 1403 1399 1396 1393 1390 1387 1384 1381 1378 1376 1373 1371 1369 1367 1366 1366 1365 1365 1365 1366 1367 1367 1369 1372 1374 1377 1380 1383 1387 1390 1394 1397 1401 1404 1407 1411 1414 1418 1421
1409 1406 1402 1398 1395 1391 1388 1385 1381 1378 1375 1372 1370 1367 1365 1363 1361 1359 1358 1357 1357 1356 1357 1357 1358 1360 1362 1365 1367 1370 1373 1377 1381 1384 1388 1391 1394 1398 1402 1405 1409 1413 1416